[[{"header":{"parameterUnit":"m.s-1","parameterCategory":1,"la1":30.2991,"la2":30.254,"lo1":-89.0895,"lo2":-89.0444,"dy":0.0017,"dx":0.0017,"nx":28,"ny":28,"refTime":"2025-11-04T03:00:00:Z","depth":0,"parameterNumber":2,"parameterNumberName":"U-component_of_WINDS"},"data":[0,0,0,0,0,0,0,0,0,0,0,0,0,0,0,0,0,0,0,0,0,0,0,0,0,0,0,0,0,0,0,0,0,0,0,0,0,0,0,0,0,0,0,0,0,0,0,0,0,0,0,0,0,0,0,0,0,0,-3.8174,-3.8174,0,-3.8216,-3.8216,-3.8217,-3.8114,-3.8111,-3.8108,-3.8104,-3.815,-3.8154,-3.8158,0,0,0,0,0,0,0,0,0,0,0,0,0,-3.8006,-3.801,-3.8174,-3.8174,-3.8175,-3.8216,-3.8216,-3.8217,-3.8115,-3.8111,-3.8107,-3.8103,-3.8149,-3.8154,-3.8159,0,0,0,0,0,0,0,0,0,0,0,0,0,-3.8067,-3.8011,-3.8174,-3.8128,-3.8125,-3.8216,-3.8217,-3.8217,-3.8115,-3.8111,-3.8106,-3.8101,-3.8147,-3.8153,-3.8159,-3.8297,0,0,-3.8179,-3.8182,0,0,0,0,0,0,0,0,-3.8064,-3.8073,-3.8135,-3.8132,-3.8128,-3.8155,-3.8174,-3.8244,-3.8117,-3.8119,-3.8104,-3.8099,-3.8156,-3.8161,-3.818,-3.8299,-3.8301,-3.8179,-3.8183,-3.8186,-3.8188,0,0,0,0,0,0,0,-3.806,-3.8071,-3.819,-3.8136,-3.8132,-3.8107,-3.811,-3.8187,-3.8164,-3.8119,-3.8111,-3.8117,-3.8153,-3.8174,-3.818,-3.8301,-3.8179,-3.8185,-3.8189,-3.8191,-3.8537,-3.8542,0,0,0,0,0,0,-3.8061,-3.8068,-3.8189,-3.8192,-3.8083,-3.8114,-3.8117,-3.8151,-3.8163,-3.816,-3.8122,-3.8112,-3.8165,-3.8173,-3.8181,-3.8345,-3.8186,-3.8192,-3.8196,-3.8532,-3.8538,-3.8544,0,0,0,0,0,0,-3.8058,-3.8073,-3.8187,-3.8128,-3.8141,-3.8122,-3.8161,-3.8154,-3.8175,-3.8165,-3.8161,-3.8147,-3.8162,-3.8172,-3.8269,-3.8345,-3.8195,-3.8201,-3.8526,-3.8534,-3.8541,-3.8671,0,0,0,0,0,0,-3.8053,-3.8072,-3.8124,-3.813,-3.8144,-3.8274,-3.8165,-3.8159,-3.8186,-3.8175,-3.8188,-3.8186,-3.8159,-3.826,-3.8275,-3.8351,-3.8206,-3.8519,-3.8529,-3.8539,-3.866,-3.8683,-3.8702,0,0,0,0,0,-3.8048,-3.8159,-3.8127,-3.8142,-3.8208,-3.8279,-3.8287,-3.8253,-3.8193,-3.8245,-3.8239,-3.8185,-3.8333,-3.8271,-3.8287,-3.8366,-3.8514,-3.8526,-3.8538,-3.8651,-3.8678,-3.8702,0,0,0,0,0,0,-3.8162,-3.8159,-3.8123,-3.8239,-3.826,-3.8261,-3.8326,-3.8283,-3.8322,-3.831,-3.8266,-3.827,-3.8376,-3.838,-3.831,-3.85,-3.8413,-3.8429,-3.8494,-3.852,-3.854,-3.8538,-3.8211,0,0,0,0,0,-3.8201,-3.8258,-3.8252,-3.8355,-3.8367,-3.8345,-3.8374,-3.8346,-3.8366,-3.8375,-3.8376,-3.8398,-3.8449,-3.8484,-3.8531,-3.866,-3.8662,-3.8722,-3.8743,-3.876,-3.8775,-3.8845,-3.8872,-3.8584,-3.8584,-3.8583,0,0,-3.8282,-3.8286,-3.8325,-3.8378,-3.8391,-3.8452,-3.8353,-3.8421,-3.8467,-3.8385,-3.8477,-3.8479,-3.8501,-3.8615,-3.8665,-3.8621,-3.8855,-3.8775,-3.8789,-3.8795,-3.886,-3.8888,-3.8912,-3.8592,-3.859,-3.8589,0,0,-3.846,-3.8469,-3.8557,-3.8572,-3.8592,-3.8577,-3.8598,-3.8606,-3.8604,-3.8695,-3.8636,-3.8689,-3.8778,-3.8797,-3.8818,-3.9005,-3.8958,-3.9021,-3.9132,-3.9201,-3.9223,-3.9243,-3.9312,-3.9337,-3.9036,-3.9036,-3.9036,0,-3.8559,-3.8648,-3.8607,-3.8681,-3.8706,-3.8635,-3.8724,-3.874,-3.8776,-3.8796,-3.8746,-3.8857,-3.8867,-3.8985,-3.9031,-3.9049,-3.9074,-3.9021,-3.9223,-3.9243,-3.9261,-3.9326,-3.9352,-3.9044,-3.9043,-3.9042,-3.9041,0,-3.8768,-3.8831,-3.89,-3.8936,-3.8969,-3.905,-3.9023,-3.9061,-3.903,-3.9021,-3.9115,-3.9124,-3.9172,-3.9198,-3.9168,-3.9313,-3.9285,-3.923,-3.9143,-3.9297,-3.9358,-3.9382,-3.9055,-3.9052,-3.905,-3.9048,0,0,-3.9022,-3.9034,-3.9061,-3.9077,-3.9094,-3.9143,-3.9221,-3.9267,-3.9302,-3.9328,-3.9394,-3.9472,-3.9421,-3.9445,-3.9417,-3.9477,-3.9628,-3.9415,-3.9415,-3.9456,-3.979,-3.9833,-3.9863,-3.9596,-3.96,-3.9604,-3.9789,0,-3.9201,-3.9335,-3.9301,-3.9434,-3.9493,-3.9426,-3.9494,-3.9513,-3.9506,-3.9555,-3.9547,-3.9604,-3.9532,-3.9546,-3.9603,-3.9598,-3.9695,-3.9583,-3.9659,-3.9662,-3.9658,-3.9894,-3.994,-4.0114,-3.9812,-3.9816,-3.9819,0,-3.9427,-3.9463,-3.9602,-3.9612,-3.9635,-3.9697,-3.9738,-3.9785,-3.9805,-3.9796,-3.9824,-3.9784,-3.9862,-3.9772,-3.9881,-3.9806,-3.9835,-3.9837,-3.9843,-3.9851,-3.9752,-3.9911,-4.0168,-4.0196,-3.9856,-3.9853,-3.985,0,-3.9602,-3.9684,-3.9778,-3.9794,-3.9806,-3.9852,-3.9859,-3.9874,-3.9905,-3.9941,-3.9961,-4.0005,-4.003,-4.0066,-4.004,-3.9976,-4.0154,-4.0061,-4.015,-4.0151,-4.0192,-4.0191,-4.0461,-4.0207,-4.0206,-4.0206,-4.0205,0,-3.9806,-3.9895,-3.9857,-3.9916,-4.0013,-3.9974,-4.0072,-4.0071,-4.0086,-4.0144,-4.0088,-4.0144,-4.0104,-4.0157,-4.0137,-4.0231,-4.0242,-4.0238,-4.0233,-4.0245,-4.0246,-4.0265,-4.0253,-4.0213,-4.0211,-4.021,-4.0209,0,-4.0018,-3.9996,-4.0095,-4.0099,-4.0102,-4.0174,-4.0177,-4.0232,-4.0221,-4.0295,-4.031,-4.0293,-4.0353,-4.0329,-4.0392,-4.0379,-4.05,-4.0477,-4.0494,-4.0489,-4.058,-4.0573,-4.0874,-4.0913,-4.0631,-4.0634,-4.0636,0,-4.0151,-4.0218,-4.0229,-4.0264,-4.0275,-4.0331,-4.0362,-4.0326,-4.0361,-4.039,-4.0442,-4.0496,-4.0538,-4.0636,-4.063,-4.0678,-4.0658,-4.076,-4.0665,-4.0676,-4.0662,-4.066,-4.0667,-4.078,-4.0783,-4.0786,-4.0788,0,-4.0391,-4.0377,-4.0424,-4.0468,-4.0506,-4.0539,-4.0566,-4.0598,-4.0563,-4.0605,-4.0665,-4.0698,-4.0762,-4.0818,-4.0861,-4.0869,-4.0825,-4.0818,-4.0841,-4.0856,-4.0864,-4.0864,-4.0549,-4.0811,-4.0809,-4.0807,-4.0806,-4.0805,-4.057,-4.0627,-4.0644,-4.0698,-4.0715,-4.0742,-4.0794,-4.0789,-4.0838,-4.0888,-4.0863,-4.0934,-4.0953,-4.1007,-4.1021,-4.1077,-4.1037,-4.107,-4.1079,-4.1089,-4.1102,-4.0853,-4.1084,-4.1083,-4.1083,-4.1082,-4.1082,0,-4.0809,-4.0816,-4.0866,-4.0907,-4.095,-4.0902,-4.093,-4.097,-4.1033,-4.1054,-4.1096,-4.1167,-4.122,-4.1218,-4.1268,-4.1313,-4.1294,-4.1328,-4.1325,-4.1329,-4.1133,-4.1109,-4.1343,-4.1343,-4.1342,-4.1342,-4.1342,-4.1342,-4.0938,-4.1033,-4.1021,-4.1124,-4.113,-4.1199,-4.1219,-4.1245,-4.1262,-4.1343,-4.1387,-4.1385,-4.1397,-4.1448,-4.1496,-4.1494,-4.1516,-4.1558,-4.1549,-4.1368,-4.1342,-4.1317,-4.1294,-4.1563,-4.1563,-4.174,-4.1741,-4.1743]},{"header":{"parameterUnit":"m.s-1","parameterCategory":1,"la1":30.2991,"la2":30.254,"lo1":-89.0895,"lo2":-89.0444,"dy":0.0017,"dx":0.0017,"nx":28,"ny":28,"refTime":"2025-11-04T03:00:00:Z","depth":0,"parameterNumber":3,"parameterNumberName":"V-component_of_WINDS"},"data":[0,0,0,0,0,0,0,0,0,0,0,0,0,0,0,0,0,0,0,0,0,0,0,0,0,0,0,0,0,0,0,0,0,0,0,0,0,0,0,0,0,0,0,0,0,0,0,0,0,0,0,0,0,0,0,0,0,0,-2.755,-2.755,0,-2.7549,-2.7549,-2.7549,-2.7507,-2.7505,-2.7504,-2.7503,-2.7503,-2.7504,-2.7505,0,0,0,0,0,0,0,0,0,0,0,0,0,-2.7513,-2.7514,-2.755,-2.755,-2.755,-2.7549,-2.7549,-2.7549,-2.7507,-2.7505,-2.7504,-2.7503,-2.7503,-2.7504,-2.7505,0,0,0,0,0,0,0,0,0,0,0,0,0,-2.7522,-2.7514,-2.755,-2.7528,-2.7526,-2.7549,-2.7549,-2.7549,-2.7507,-2.7505,-2.7504,-2.7502,-2.7502,-2.7504,-2.7505,-2.7548,0,0,-2.751,-2.7511,0,0,0,0,0,0,0,0,-2.7522,-2.7524,-2.7531,-2.753,-2.7528,-2.7526,-2.7536,-2.7549,-2.7507,-2.7514,-2.7503,-2.7501,-2.7512,-2.7513,-2.7516,-2.7548,-2.7548,-2.751,-2.7511,-2.7512,-2.7512,0,0,0,0,0,0,0,-2.7521,-2.7523,-2.7549,-2.7532,-2.7529,-2.7519,-2.7518,-2.7538,-2.7523,-2.7514,-2.7511,-2.7511,-2.7511,-2.7515,-2.7516,-2.7548,-2.751,-2.7512,-2.7512,-2.7513,-2.7614,-2.7616,0,0,0,0,0,0,-2.7524,-2.7523,-2.7549,-2.7549,-2.7521,-2.7521,-2.752,-2.7528,-2.7522,-2.752,-2.7513,-2.7509,-2.7513,-2.7514,-2.7516,-2.7565,-2.7512,-2.7513,-2.7514,-2.7613,-2.7615,-2.7617,0,0,0,0,0,0,-2.7523,-2.7526,-2.7549,-2.7535,-2.7538,-2.7523,-2.7533,-2.7529,-2.7533,-2.7521,-2.7518,-2.752,-2.7512,-2.7514,-2.754,-2.7564,-2.7514,-2.7515,-2.7611,-2.7613,-2.7616,-2.7664,0,0,0,0,0,0,-2.7522,-2.7526,-2.7543,-2.7536,-2.7538,-2.7574,-2.7534,-2.753,-2.7536,-2.7532,-2.7527,-2.7525,-2.7511,-2.7538,-2.7542,-2.7566,-2.7517,-2.7608,-2.7612,-2.7615,-2.7661,-2.7668,-2.7675,0,0,0,0,0,-2.7521,-2.7557,-2.7544,-2.7547,-2.7559,-2.7576,-2.7577,-2.756,-2.7538,-2.7554,-2.7547,-2.7525,-2.7561,-2.7541,-2.7545,-2.757,-2.7607,-2.7611,-2.7615,-2.7657,-2.7667,-2.7675,0,0,0,0,0,0,-2.7567,-2.7556,-2.7541,-2.7576,-2.7577,-2.7569,-2.7589,-2.7571,-2.7578,-2.7573,-2.7552,-2.7551,-2.7581,-2.7578,-2.7556,-2.761,-2.758,-2.7585,-2.7611,-2.762,-2.7627,-2.7627,-2.7518,0,0,0,0,0,-2.7581,-2.7596,-2.7585,-2.7617,-2.7618,-2.7604,-2.761,-2.7597,-2.7597,-2.7597,-2.7591,-2.7593,-2.7604,-2.7612,-2.7622,-2.766,-2.7658,-2.7679,-2.7686,-2.7692,-2.7696,-2.7715,-2.7724,-2.763,-2.763,-2.763,0,0,-2.7611,-2.7607,-2.7617,-2.7626,-2.7626,-2.7641,-2.7604,-2.7623,-2.7634,-2.76,-2.7625,-2.762,-2.762,-2.7652,-2.7666,-2.7651,-2.7722,-2.7697,-2.7702,-2.7703,-2.772,-2.7729,-2.7737,-2.7632,-2.7632,-2.7632,0,0,-2.7673,-2.7671,-2.7697,-2.7697,-2.7696,-2.7686,-2.7692,-2.7686,-2.7681,-2.7706,-2.7681,-2.7693,-2.7714,-2.7714,-2.7717,-2.7778,-2.7758,-2.7782,-2.782,-2.7838,-2.7846,-2.7852,-2.7873,-2.7881,-2.7786,-2.7787,-2.7787,0,-2.771,-2.7732,-2.7713,-2.7732,-2.7737,-2.7706,-2.7732,-2.7733,-2.7735,-2.7739,-2.7722,-2.7746,-2.7744,-2.7775,-2.779,-2.7793,-2.7799,-2.7782,-2.7846,-2.7853,-2.7858,-2.7878,-2.7886,-2.7789,-2.7789,-2.7789,-2.7788,0,-2.7778,-2.7793,-2.7814,-2.7817,-2.7823,-2.7846,-2.7829,-2.7839,-2.7824,-2.7816,-2.784,-2.7836,-2.7844,-2.7851,-2.7837,-2.788,-2.7871,-2.785,-2.7819,-2.7871,-2.7889,-2.7896,-2.7793,-2.7792,-2.7792,-2.7791,0,0,-2.7869,-2.786,-2.7868,-2.7868,-2.7864,-2.7876,-2.7897,-2.7904,-2.7912,-2.7915,-2.7931,-2.7949,-2.793,-2.7933,-2.7919,-2.7936,-2.7983,-2.7913,-2.7913,-2.7926,-2.8029,-2.8044,-2.8053,-2.797,-2.7971,-2.7972,-2.8029,0,-2.7929,-2.7963,-2.7946,-2.7983,-2.7997,-2.7968,-2.7985,-2.7985,-2.7977,-2.7988,-2.7979,-2.7992,-2.7966,-2.7967,-2.7982,-2.7974,-2.8003,-2.797,-2.7985,-2.7986,-2.7985,-2.8063,-2.8079,-2.8133,-2.8036,-2.8037,-2.8038,0,-2.8003,-2.8008,-2.8046,-2.8038,-2.8043,-2.806,-2.8065,-2.8075,-2.8074,-2.8067,-2.807,-2.8052,-2.8071,-2.8041,-2.8067,-2.8045,-2.805,-2.8046,-2.8048,-2.8049,-2.8015,-2.8065,-2.815,-2.8157,-2.8049,-2.8048,-2.8048,0,-2.8065,-2.8081,-2.8106,-2.8107,-2.8099,-2.8111,-2.8108,-2.8105,-2.811,-2.8115,-2.8118,-2.8125,-2.8128,-2.8134,-2.8118,-2.8097,-2.8146,-2.8114,-2.8141,-2.8141,-2.8152,-2.8151,-2.8238,-2.8156,-2.8156,-2.8156,-2.8156,0,-2.8133,-2.8157,-2.8133,-2.8148,-2.8174,-2.8154,-2.818,-2.8174,-2.8171,-2.8185,-2.816,-2.8173,-2.8151,-2.8162,-2.815,-2.8173,-2.8175,-2.817,-2.8166,-2.8172,-2.8172,-2.8174,-2.817,-2.8158,-2.8158,-2.8157,-2.8157,0,-2.8207,-2.8192,-2.8216,-2.8206,-2.8204,-2.8224,-2.8215,-2.8229,-2.8219,-2.8236,-2.8239,-2.8224,-2.8235,-2.8219,-2.8229,-2.8221,-2.8253,-2.8244,-2.8253,-2.825,-2.8277,-2.8274,-2.8368,-2.8378,-2.829,-2.8291,-2.8292,0,-2.8251,-2.8269,-2.826,-2.8267,-2.8266,-2.8277,-2.8282,-2.8262,-2.8268,-2.8267,-2.8281,-2.829,-2.8296,-2.8315,-2.8305,-2.8312,-2.8303,-2.8335,-2.8304,-2.8308,-2.8303,-2.8301,-2.8303,-2.8341,-2.8342,-2.8343,-2.8344,0,-2.8331,-2.8322,-2.833,-2.8335,-2.8341,-2.8345,-2.8346,-2.8353,-2.8332,-2.834,-2.8351,-2.8356,-2.8365,-2.8374,-2.8379,-2.8376,-2.8356,-2.8354,-2.836,-2.8366,-2.837,-2.8367,-2.827,-2.8352,-2.8351,-2.835,-2.835,-2.835,-2.839,-2.8404,-2.84,-2.841,-2.8408,-2.841,-2.8422,-2.8413,-2.8421,-2.8427,-2.8415,-2.8429,-2.8426,-2.843,-2.8429,-2.8439,-2.8425,-2.8434,-2.8437,-2.8439,-2.8443,-2.8369,-2.844,-2.844,-2.8439,-2.8439,-2.8439,0,-2.8468,-2.8464,-2.8472,-2.8474,-2.8482,-2.8462,-2.8462,-2.847,-2.8482,-2.8481,-2.8487,-2.8499,-2.8508,-2.8498,-2.8504,-2.8515,-2.8506,-2.8517,-2.8516,-2.8515,-2.8456,-2.8449,-2.8524,-2.8524,-2.8524,-2.8524,-2.8524,-2.8524,-2.8509,-2.8532,-2.8522,-2.8543,-2.8539,-2.8552,-2.8553,-2.8554,-2.8553,-2.8567,-2.8574,-2.8567,-2.8563,-2.8569,-2.8575,-2.8572,-2.8576,-2.859,-2.8584,-2.8528,-2.852,-2.8512,-2.8505,-2.8591,-2.8591,-2.8642,-2.8643,-2.8643]}]]